EW9733 Weather Reports


Display with metric or nautical units.
time (UTC)temp
F
wind
direction
speed
MPH
gust
MPH
rain 1hr
in
rain 24hr
in
rain mn
in
humidity
%
barometer
mb
20260904160024 80 279 1.0 5.0 0.00 0.00 0.00 65 1007.7
20260904154519 79 30 1.0 7.0 0.00 0.00 0.00 69 1007.8
20260904153023 78 266 1.0 4.0 0.00 0.00 0.00 71 1007.9
20260904151513 78 61 0.0 5.0 0.00 0.00 0.00 75 1007.9
20260904150011 77 65 2.0 5.0 0.00 0.00 0.00 73 1008.1
20260904144505 76 31 1.0 3.0 0.00 0.00 0.00 81 1008.1
20260904143001 74 49 0.0 6.0 0.00 0.00 0.00 87 1008.2
20260904141558 70 281 0.0 4.0 0.00 0.00 0.00 94 1008.3
20260904140054 69 27 0.0 1.0 0.00 0.00 0.00 95 1008.4
20260904134550 68 349 0.0 2.0 0.00 0.00 0.00 95 1008.6
20260904133055 68 66 0.0 3.0 0.00 0.00 0.00 95 1008.6
20260904131545 67 52 1.0 2.0 0.00 0.00 0.00 95 1008.6
20260904130043 67 58 0.0 2.0 0.00 0.00 0.00 95 1008.7
20260904124545 67 55 0.0 2.0 0.00 0.03 0.00 95 1008.7
20260904123103 67 55 0.0 1.0 0.00 0.03 0.00 95 1008.8
20260904121539 67 54 1.0 4.0 0.00 0.03 0.00 95 1008.7
20260904120039 66 111 0.0 1.0 0.00 0.03 0.00 95 1008.7
20260904114537 66 111 0.0 2.0 0.00 0.06 0.00 95 1008.7
20260904113047 66 138 0.0 0.0 0.00 0.06 0.00 94 1008.6
20260904111534 66 138 0.0 0.0 0.00 0.06 0.00 94 1008.5
20260904110038 66 138 0.0 0.0 0.00 0.06 0.00 94 1008.6
20260904104529 66 138 0.0 0.0 0.00 0.08 0.00 94 1008.5
20260904103027 66 138 0.0 0.0 0.00 0.08 0.00 94 1008.3
20260904101527 66 138 0.0 0.0 0.00 0.08 0.00 94 1008.3
20260904100025 66 138 0.0 0.0 0.00 0.08 0.00 94 1008.2
20260904094524 66 138 0.0 0.0 0.00 0.10 0.00 94 1008.3
20260904093025 66 138 0.0 0.0 0.00 0.10 0.00 94 1008.4
20260904091524 66 138 0.0 0.0 0.00 0.10 0.00 94 1008.1
20260904090023 66 138 0.0 0.0 0.00 0.10 0.00 94 1008.1
20260904084523 66 138 0.0 0.0 0.00 0.13 0.00 94 1008.2
20260904083024 66 138 0.0 0.0 0.00 0.13 0.00 94 1008.2
20260904081520 66 138 0.0 0.0 0.00 0.13 0.00 94 1008.3
20260904080018 66 138 0.0 0.0 0.00 0.13 0.00 94 1008.3
20260904074517 66 138 0.0 0.0 0.00 0.13 0.00 94 1008.5
20260904073016 66 138 0.0 2.0 0.00 0.13 0.00 94 1008.7
20260904071515 65 121 0.0 3.0 0.00 0.13 0.00 94 1008.7
20260904070027 65 101 0.0 0.0 0.00 0.13 0.00 94 1008.9
20260904064508 64 101 0.0 0.0 0.00 0.13 0.00 94 1008.8
20260904063012 64 101 0.0 0.0 0.00 0.13 0.00 94 1008.8
20260904061505 64 101 0.0 0.0 0.00 0.13 0.00 93 1009.0
20260904060004 64 101 0.0 0.0 0.00 0.13 0.00 93 1009.2
20260904054502 63 101 0.0 0.0 0.00 0.13 0.00 93 1009.5
20260904053100 63 101 0.0 0.0 0.00 0.13 0.00 93 1009.5
20260904051558 63 101 0.0 0.0 0.00 0.13 0.00 92 1009.7
20260904050056 63 101 0.0 0.0 0.00 0.13 0.00 92 1009.9
20260904044559 64 101 0.0 0.0 0.00 0.13 0.00 92 1009.9
20260904043057 64 101 0.0 0.0 0.00 0.13 0.00 92 1010.0
20260904041555 64 101 0.0 0.0 0.00 0.13 0.00 92 1010.0
20260904040050 64 101 0.0 0.0 0.00 0.13 0.00 92 1010.0
20260904034556 64 101 0.0 0.0 0.00 0.13 0.13 92 1010.2
20260904033050 65 101 0.0 0.0 0.00 0.13 0.13 91 1010.2
20260904031549 65 101 0.0 0.0 0.00 0.13 0.13 91 1010.2
20260904030049 65 101 0.0 0.0 0.00 0.13 0.13 91 1010.2
20260904024547 66 101 0.0 0.0 0.00 0.13 0.13 91 1010.5
20260904023054 66 101 0.0 0.0 0.00 0.13 0.13 91 1010.7
20260904021547 66 101 0.0 0.0 0.00 0.13 0.13 91 1010.9
20260904020048 66 101 0.0 0.0 0.00 0.13 0.13 90 1010.8
20260904014547 66 101 0.0 2.0 0.00 0.13 0.13 90 1010.8
20260904013045 67 69 0.0 0.0 0.00 0.13 0.13 89 1011.1
20260904011600 67 69 0.0 0.0 0.00 0.13 0.13 89 1011.2
20260904010044 67 69 0.0 0.0 0.00 0.13 0.13 88 1011.0
20260904004543 68 69 0.0 0.0 0.00 0.13 0.13 88 1010.7
20260904003043 68 69 0.0 0.0 0.00 0.13 0.13 88 1010.5
20260904001544 69 69 0.0 0.0 0.00 0.13 0.13 87 1010.5
20260904000050 69 69 0.0 0.0 0.00 0.13 0.13 86 1010.5
20260903234545 70 69 0.0 0.0 0.00 0.13 0.13 85 1010.3
20260903233041 71 69 0.0 0.0 0.00 0.13 0.13 85 1010.3
20260903231544 71 69 0.0 1.0 0.00 0.13 0.13 85 1010.1
20260903230045 72 75 0.0 3.0 0.00 0.13 0.13 85 1010.1
20260903224540 73 107 0.0 0.0 0.00 0.13 0.13 84 1010.4
20260903223037 73 107 0.0 0.0 0.00 0.13 0.13 84 1010.5
20260903221536 74 107 0.0 0.0 0.00 0.13 0.13 83 1010.5
20260903220039 74 107 0.0 1.0 0.00 0.13 0.13 82 1010.7
20260903214541 74 107 0.0 3.0 0.00 0.13 0.13 81 1010.5
20260903213041 74 138 0.0 1.0 0.00 0.13 0.13 81 1010.4
20260903211534 73 138 0.0 3.0 0.00 0.13 0.13 82 1010.4
20260903210033 73 84 0.0 1.0 0.00 0.13 0.13 84 1010.4
20260903204531 72 86 0.0 2.0 0.00 0.13 0.13 83 1010.6
20260903203043 73 89 0.0 1.0 0.00 0.13 0.13 84 1010.7
20260903201536 73 89 0.0 3.0 0.00 0.13 0.13 83 1010.6
20260903200029 72 61 0.0 4.0 0.00 0.13 0.13 84 1010.6
20260903194528 71 46 2.0 6.0 0.00 0.13 0.13 86 1010.8
20260903193034 71 72 1.0 3.0 0.00 0.13 0.13 87 1011.1
20260903191524 70 38 0.0 3.0 0.00 0.13 0.13 86 1011.3
20260903190023 71 57 1.0 5.0 0.00 0.13 0.13 86 1011.5
20260903184522 71 59 0.0 3.0 0.00 0.13 0.13 85 1011.5
20260903183020 72 46 0.0 2.0 0.00 0.13 0.13 84 1011.9
20260903181520 72 58 0.0 5.0 0.00 0.13 0.13 84 1011.9
20260903180023 73 80 0.0 5.0 0.00 0.13 0.13 83 1012.0
20260903174522 74 67 0.0 4.0 0.00 0.13 0.13 83 1011.9
20260903173017 74 53 1.0 5.0 0.00 0.13 0.13 82 1012.0
20260903171515 75 336 0.0 3.0 0.00 0.13 0.13 83 1011.9
20260903170017 75 73 0.0 3.0 0.00 0.13 0.13 85 1011.7
20260903164514 74 140 0.0 5.0 0.00 0.13 0.13 85 1011.5
20260903163014 74 72 0.0 3.0 0.00 0.13 0.13 89 1011.4
20260903161506 73 49 0.0 6.0 0.00 0.13 0.13 90 1011.6